FW7504 Weather Reports


time (UTC)temp
F
wind
direction
speed
knots
gust
knots
rain 1hr
in
rain 24hr
in
rain mn
in
humidity
%
barometer
mb
20260906093100 75 0 0.0 0.0 0.00 0.02 0.00 89 1013.9
20260906092554 75 0 0.0 0.0 0.00 0.02 0.00 88 1014.1
20260906092052 75 0 0.0 0.0 0.00 0.02 0.00 88 1014.1
20260906091601 75 0 0.0 1.7 0.00 0.02 0.00 89 1014.1
20260906091054 75 0 0.0 1.7 0.00 0.02 0.00 88 1014.1
20260906090552 75 352 0.0 1.7 0.00 0.02 0.00 88 1014.2
20260906090115 75 0 0.0 1.7 0.00 0.02 0.00 88 1014.2
20260906085554 75 0 0.0 1.7 0.00 0.02 0.00 88 1014.2
20260906085055 75 352 0.0 1.7 0.00 0.02 0.00 88 1014.3
20260906084602 75 0 0.0 0.9 0.00 0.02 0.00 88 1014.3
20260906084053 75 0 0.0 1.7 0.00 0.02 0.00 88 1014.3
20260906083553 75 0 0.0 2.6 0.00 0.02 0.00 88 1014.5
20260906083103 75 0 0.0 2.6 0.00 0.02 0.00 88 1014.6
20260906082552 75 0 0.0 2.6 0.00 0.02 0.00 88 1014.3
20260906082053 75 5 0.0 2.6 0.00 0.02 0.00 88 1014.4
20260906081601 75 5 0.0 2.6 0.00 0.02 0.00 88 1014.3
20260906081052 75 0 0.0 1.7 0.00 0.02 0.00 88 1014.2
20260906080552 75 0 0.0 1.7 0.00 0.02 0.00 89 1014.1
20260906080105 74 0 0.0 1.7 0.00 0.02 0.00 89 1014.0
20260906075552 74 0 0.0 1.7 0.00 0.02 0.00 89 1014.0
20260906075053 74 0 0.0 1.7 0.00 0.02 0.00 89 1013.8
20260906074610 74 0 0.0 1.7 0.00 0.02 0.00 89 1013.8
20260906074052 74 5 0.0 0.9 0.00 0.02 0.00 89 1013.8
20260906073552 74 0 0.0 0.9 0.00 0.02 0.00 89 1013.8
20260906073104 74 0 0.0 1.7 0.00 0.02 0.00 89 1013.8
20260906072552 74 0 0.0 1.7 0.00 0.02 0.00 89 1013.6
20260906072052 74 0 0.0 3.5 0.00 0.02 0.00 89 1013.7
20260906071602 74 0 0.0 3.5 0.00 0.02 0.00 89 1013.7
20260906071049 74 0 0.0 3.5 0.00 0.02 0.00 90 1014.0
20260906070549 74 0 0.0 1.7 0.00 0.02 0.00 90 1014.1
20260906070107 74 0 0.0 1.7 0.00 0.02 0.00 89 1013.9
20260906065555 74 0 0.0 1.7 0.00 0.02 0.00 89 1013.8
20260906065053 74 0 0.0 1.7 0.00 0.02 0.00 89 1013.9
20260906064602 74 0 0.0 1.7 0.00 0.02 0.00 89 1014.0
20260906064052 74 352 0.0 0.9 0.00 0.02 0.00 89 1014.1
20260906063551 74 0 0.0 0.0 0.00 0.02 0.00 89 1014.2
20260906063103 74 0 0.0 0.0 0.00 0.02 0.00 89 1014.3
20260906062551 74 0 0.0 1.7 0.00 0.02 0.00 89 1014.3
20260906062048 74 0 0.0 1.7 0.00 0.02 0.00 89 1014.2
20260906061602 74 0 0.0 1.7 0.00 0.02 0.00 88 1014.1
20260906061056 74 352 0.0 1.7 0.00 0.02 0.00 89 1014.2
20260906060552 74 0 0.0 0.9 0.00 0.02 0.00 89 1014.2
20260906060108 74 0 0.0 0.9 0.00 0.02 0.00 88 1014.2
20260906055552 74 0 0.0 0.9 0.00 0.02 0.00 89 1014.2
20260906055052 74 0 0.0 0.0 0.00 0.02 0.00 89 1014.1
20260906054605 74 0 0.0 0.0 0.00 0.02 0.00 88 1014.1
20260906054049 74 0 0.0 1.7 0.00 0.02 0.00 88 1014.0
20260906053553 74 0 0.0 1.7 0.00 0.02 0.00 88 1014.1
20260906053102 74 352 0.0 1.7 0.00 0.02 0.00 88 1014.0
20260906052555 74 0 0.0 0.9 0.00 0.02 0.00 88 1014.1
20260906052056 74 0 0.0 0.0 0.00 0.02 0.00 88 1014.1
20260906051602 74 0 0.0 0.0 0.00 0.02 0.00 88 1014.0
20260906051052 74 0 0.0 0.0 0.00 0.02 0.00 88 1014.1
20260906050549 75 0 0.0 0.0 0.00 0.02 0.00 87 1014.1
20260906050107 75 0 0.0 0.0 0.00 0.02 0.00 87 1014.2
20260906045548 75 0 0.0 0.0 0.00 0.02 0.00 87 1014.3
20260906045049 75 0 0.0 0.0 0.00 0.02 0.00 86 1014.4
20260906044600 75 0 0.0 0.0 0.00 0.02 0.00 86 1014.5
20260906044051 75 0 0.0 0.9 0.00 0.02 0.00 86 1014.6
20260906043552 75 0 0.0 0.9 0.00 0.02 0.00 86 1014.5
20260906043101 75 0 0.0 0.9 0.00 0.02 0.00 86 1014.5
20260906042553 75 352 0.0 0.9 0.00 0.02 0.00 86 1014.5
20260906042052 75 0 0.0 0.0 0.00 0.02 0.00 86 1014.5
20260906041604 75 0 0.0 0.0 0.00 0.02 0.00 85 1014.6
20260906041052 75 0 0.0 0.0 0.00 0.02 0.00 85 1014.5
20260906040552 75 0 0.0 0.0 0.00 0.02 0.00 85 1014.6
20260906035552 76 0 0.0 0.0 0.00 0.02 0.02 85 1014.6
20260906035049 76 0 0.0 0.9 0.00 0.02 0.02 85 1014.8
20260906034602 76 0 0.0 0.9 0.00 0.02 0.02 85 1014.5
20260906034053 76 0 0.0 0.9 0.00 0.02 0.02 84 1014.6
20260906033556 76 352 0.0 0.9 0.00 0.02 0.02 84 1014.7
20260906033102 76 0 0.0 0.9 0.00 0.02 0.02 84 1014.6
20260906032552 76 0 0.0 1.7 0.00 0.02 0.02 83 1014.7
20260906032052 76 0 0.0 1.7 0.00 0.02 0.02 83 1014.7
20260906031603 76 0 0.0 1.7 0.00 0.02 0.02 83 1014.5
20260906031052 76 0 0.0 0.9 0.00 0.02 0.02 83 1014.7
20260906030552 76 0 0.0 0.9 0.00 0.02 0.02 83 1014.6
20260906025552 77 0 0.0 0.0 0.00 0.02 0.02 83 1014.6
20260906025052 77 0 0.0 0.0 0.00 0.02 0.02 83 1014.6
20260906024607 77 0 0.0 0.0 0.00 0.02 0.02 83 1014.5
20260906024051 77 0 0.0 0.0 0.00 0.02 0.02 82 1014.2
20260906023549 77 0 0.0 0.0 0.00 0.02 0.02 82 1014.2
20260906023103 77 0 0.0 0.0 0.00 0.02 0.02 81 1014.1
20260906022555 77 0 0.0 0.0 0.00 0.02 0.02 81 1014.0
20260906022055 78 0 0.0 0.0 0.00 0.02 0.02 81 1014.0
20260906021607 78 0 0.0 0.0 0.00 0.02 0.02 80 1014.2
20260906021055 78 0 0.0 0.0 0.00 0.02 0.02 80 1014.1
20260906020552 78 0 0.0 0.0 0.00 0.02 0.02 80 1014.1
20260906020104 78 0 0.0 0.0 0.00 0.02 0.02 79 1014.1
20260906015551 78 0 0.0 0.0 0.00 0.02 0.02 80 1014.0
20260906015049 79 0 0.0 0.0 0.00 0.02 0.02 79 1013.9
20260906014611 79 0 0.0 0.0 0.00 0.02 0.02 79 1013.7
20260906014051 79 0 0.0 1.7 0.00 0.02 0.02 79 1013.8
20260906013554 79 0 0.0 1.7 0.00 0.02 0.02 78 1013.6
20260906013106 79 0 0.0 1.7 0.00 0.02 0.02 77 1013.5
20260906012550 79 352 0.0 2.6 0.00 0.02 0.02 77 1013.5
20260906012049 79 352 0.0 2.6 0.00 0.02 0.02 77 1013.4
20260906011619 80 352 1.7 2.6 0.00 0.02 0.02 76 1013.5
20260906011048 80 323 0.9 2.6 0.00 0.02 0.02 77 1013.5
20260906010548 80 0 0.0 0.9 0.00 0.02 0.02 76 1013.6
20260906010105 80 0 0.0 0.9 0.00 0.02 0.02 75 1013.4
20260906005548 80 0 0.0 0.9 0.00 0.02 0.02 75 1013.4
20260906005052 80 0 0.0 0.9 0.00 0.02 0.02 75 1013.4
20260906004605 81 0 0.0 0.0 0.00 0.02 0.02 75 1013.4
20260906004052 81 0 0.0 0.0 0.00 0.02 0.02 74 1013.3
20260906003549 81 0 0.0 0.0 0.00 0.02 0.02 74 1013.3
20260906003111 81 0 0.0 0.0 0.00 0.02 0.02 74 1013.2
20260906002552 81 0 0.0 0.0 0.00 0.02 0.02 73 1013.1
20260906002055 82 0 0.0 0.9 0.00 0.02 0.02 73 1013.1
20260906001604 82 0 0.0 2.6 0.00 0.02 0.02 71 1013.0
20260906001054 83 0 0.9 2.6 0.00 0.02 0.02 71 1013.1
20260906000551 83 68 0.9 2.6 0.00 0.02 0.02 71 1013.1
20260905235552 83 5 0.0 0.9 0.00 0.02 0.02 69 1013.5
20260905235057 83 0 0.0 0.9 0.00 0.02 0.02 69 1013.4
20260905234603 83 0 0.0 1.7 0.00 0.02 0.02 68 1013.2
20260905234054 84 0 0.0 1.7 0.00 0.02 0.02 68 1013.5
20260905233554 84 0 0.0 1.7 0.00 0.02 0.02 67 1013.6
20260905233121 84 0 0.0 1.7 0.00 0.02 0.02 68 1013.5
20260905232553 84 0 0.0 0.9 0.00 0.02 0.02 68 1013.6
20260905232053 84 0 0.0 0.9 0.00 0.02 0.02 68 1013.4
20260905231602 85 0 0.0 0.9 0.00 0.02 0.02 67 1013.1
20260905231054 85 0 0.0 1.7 0.00 0.02 0.02 67 1012.9
20260905230556 85 0 0.0 7.0 0.00 0.02 0.02 65 1012.9
20260905230103 85 0 1.7 7.0 0.00 0.02 0.02 64 1012.9
20260905225553 85 113 2.6 7.0 0.00 0.02 0.02 64 1012.8
20260905225054 85 102 3.5 7.0 0.00 0.02 0.02 64 1012.7
20260905224625 86 104 2.6 7.0 0.00 0.02 0.02 63 1013.0
20260905224053 86 78 1.7 6.1 0.00 0.02 0.02 63 1013.0
20260905223553 86 77 0.9 6.1 0.00 0.02 0.02 63 1013.0
20260905223107 86 70 0.9 5.2 0.00 0.02 0.02 63 1013.1
20260905222553 86 71 1.7 6.1 0.00 0.02 0.02 63 1013.1
20260905222053 87 82 1.7 7.8 0.00 0.02 0.02 63 1013.3
20260905221559 87 53 2.6 7.8 0.00 0.02 0.02 62 1013.2
20260905221054 87 64 2.6 6.1 0.00 0.02 0.02 63 1013.3
20260905220553 87 360 0.9 5.2 0.00 0.02 0.02 64 1013.5
20260905220107 87 85 0.9 7.0 0.00 0.02 0.02 64 1013.6
20260905215554 87 63 2.6 8.7 0.00 0.02 0.02 64 1013.6
20260905215053 87 360 2.6 8.7 0.00 0.02 0.02 64 1013.7
20260905214606 87 90 2.6 6.1 0.00 0.02 0.02 65 1013.8
20260905214054 87 69 0.9 5.2 0.00 0.02 0.02 66 1013.8
20260905213554 87 0 1.7 8.7 0.00 0.02 0.02 65 1013.7
20260905213102 87 51 1.7 8.7 0.00 0.02 0.02 65 1013.6
20260905212554 87 41 3.5 9.6 0.00 0.02 0.02 64 1013.7
20260905212053 87 9 3.5 9.6 0.00 0.02 0.02 65 1013.6
20260905211609 86 59 2.6 9.6 0.00 0.02 0.02 66 1013.7
20260905211052 86 331 4.3 11.3 0.00 0.02 0.02 66 1013.7
20260905210553 86 34 3.5 12.2 0.00 0.02 0.02 66 1013.8
20260905205554 86 100 7.0 13.0 0.00 0.02 0.02 67 1013.5
20260905205053 86 94 7.0 13.0 0.00 0.02 0.02 67 1013.7
20260905204602 86 91 7.8 13.0 0.00 0.02 0.02 67 1013.7
20260905204056 86 322 4.3 13.0 0.00 0.02 0.02 67 1013.8
20260905203554 86 63 6.1 12.2 0.00 0.02 0.02 67 1014.0
20260905203106 87 67 6.1 13.0 0.00 0.02 0.02 67 1014.1
20260905202554 87 52 5.2 13.0 0.00 0.02 0.02 68 1014.1
20260905202056 87 109 3.5 11.3 0.00 0.02 0.02 69 1014.1
20260905201611 87 80 3.5 18.2 0.00 0.02 0.02 70 1013.9
20260905201055 87 77 6.1 18.2 0.00 0.02 0.02 71 1013.8
20260905200554 86 344 0.9 3.5 0.00 0.02 0.02 79 1013.4
20260905200104 86 0 0.0 1.7 0.00 0.02 0.02 83 1013.3
20260905195555 85 0 0.0 1.7 0.00 0.02 0.02 85 1013.4
20260905195054 85 0 0.0 0.9 0.00 0.02 0.02 88 1013.6
20260905194600 85 0 0.0 0.0 0.00 0.02 0.02 86 1013.5
20260905194057 85 0 0.0 0.0 0.00 0.02 0.02 88 1013.5
20260905193553 85 0 0.0 0.0 0.02 0.02 0.02 88 1013.6
20260905193100 85 0 0.0 0.0 0.02 0.02 0.02 89 1013.8
20260905192554 85 0 0.0 0.0 0.02 0.02 0.02 89 1013.8
20260905192054 85 0 0.0 0.0 0.02 0.02 0.02 89 1013.9
20260905191610 85 0 0.0 0.9 0.02 0.02 0.02 87 1013.9
20260905191053 85 0 0.0 1.7 0.02 0.02 0.02 84 1014.0
20260905190553 85 0 0.0 1.7 0.02 0.02 0.02 81 1014.2
20260905190138 86 0 0.0 1.7 0.02 0.02 0.02 78 1014.1
20260905185554 88 0 0.0 2.6 0.02 0.02 0.02 74 1014.4
20260905185054 90 0 0.9 4.3 0.02 0.02 0.02 71 1014.3
20260905184622 92 225 0.9 4.3 0.02 0.02 0.02 67 1014.3
20260905184056 94 360 0.9 4.3 0.02 0.02 0.02 60 1014.3
20260905183554 95 360 0.9 5.2 0.00 0.00 0.00 54 1014.0
20260905183106 95 360 1.7 5.2 0.00 0.00 0.00 53 1013.9
20260905182553 95 360 2.6 5.2 0.00 0.00 0.00 54 1014.1
20260905182056 95 360 0.9 3.5 0.00 0.00 0.00 52 1014.1
20260905181606 95 0 0.9 7.0 0.00 0.00 0.00 52 1014.1
20260905181054 95 360 0.9 7.0 0.00 0.00 0.00 52 1014.3
20260905180554 95 360 2.6 7.0 0.00 0.00 0.00 54 1014.4
20260905180108 95 360 0.0 7.0 0.00 0.00 0.00 53 1014.3
20260905175553 95 360 0.0 7.8 0.00 0.00 0.00 53 1014.3
20260905175054 95 360 3.5 7.8 0.00 0.00 0.00 53 1014.5
20260905174604 95 360 2.6 7.0 0.00 0.00 0.00 53 1014.6
20260905174052 95 360 1.7 5.2 0.00 0.00 0.00 55 1014.7
20260905173556 95 360 2.6 7.0 0.00 0.00 0.00 55 1014.7
20260905173109 94 360 1.7 8.7 0.00 0.00 0.00 54 1014.9
20260905172556 94 360 2.6 8.7 0.00 0.00 0.00 55 1014.9
20260905172053 93 360 0.0 4.3 0.00 0.00 0.00 57 1015.0
20260905171603 93 0 1.7 4.3 0.00 0.00 0.00 57 1014.9
20260905171050 93 360 0.9 4.3 0.00 0.00 0.00 59 1014.9
20260905170553 93 360 1.7 4.3 0.00 0.00 0.00 60 1015.0
20260905170120 92 360 0.0 7.0 0.00 0.00 0.00 62 1015.1
20260905165548 92 360 1.7 7.0 0.00 0.00 0.00 62 1015.0
20260905165055 92 360 0.0 7.0 0.00 0.00 0.00 63 1015.2
20260905164602 92 0 1.7 7.0 0.00 0.00 0.00 63 1015.3
20260905164051 91 360 1.7 7.0 0.00 0.00 0.00 64 1015.4
20260905163551 91 360 0.9 7.0 0.00 0.00 0.00 64 1015.5
20260905163106 91 360 3.5 7.0 0.00 0.00 0.00 65 1015.5
20260905162550 91 360 0.9 4.3 0.00 0.00 0.00 66 1015.4
20260905162051 90 0 0.9 4.3 0.00 0.00 0.00 66 1015.5
20260905161601 90 360 0.9 4.3 0.00 0.00 0.00 67 1015.6
20260905161052 90 0 0.0 3.5 0.00 0.00 0.00 68 1015.6
20260905160551 90 0 0.0 4.3 0.00 0.00 0.00 67 1015.7
20260905160112 90 360 0.9 4.3 0.00 0.00 0.00 67 1015.8
20260905155552 90 360 1.7 4.3 0.00 0.00 0.00 69 1015.8
20260905155054 89 0 0.0 4.3 0.00 0.00 0.00 68 1015.8
20260905154606 89 360 1.7 4.3 0.00 0.00 0.00 69 1016.0
20260905154052 89 0 1.7 4.3 0.00 0.00 0.00 69 1016.1
20260905153552 89 360 0.9 3.5 0.00 0.00 0.00 69 1016.1
20260905153104 89 0 0.9 3.5 0.00 0.00 0.00 69 1015.9
20260905152552 89 0 0.9 3.5 0.00 0.00 0.00 69 1016.1
20260905152051 89 360 0.9 3.5 0.00 0.00 0.00 69 1016.1
20260905151605 88 0 0.0 3.5 0.00 0.00 0.00 70 1016.1
20260905151052 88 360 0.9 3.5 0.00 0.00 0.00 70 1016.1
20260905150551 88 360 0.0 2.6 0.00 0.00 0.00 70 1016.1
20260905150108 87 0 0.9 2.6 0.00 0.00 0.00 70 1016.1
20260905145551 86 0 0.0 2.6 0.00 0.00 0.00 73 1016.2
20260905145051 86 0 0.0 2.6 0.00 0.00 0.00 74 1016.4
20260905144604 85 360 0.9 2.6 0.00 0.00 0.00 75 1016.4
20260905144052 85 0 0.0 0.9 0.00 0.00 0.00 76 1016.3
20260905143552 85 0 0.0 1.7 0.00 0.00 0.00 76 1016.4
20260905143100 85 0 0.0 1.7 0.00 0.00 0.00 76 1016.4
20260905142554 84 0 0.0 1.7 0.00 0.00 0.00 76 1016.4
20260905142053 84 360 0.0 0.9 0.00 0.00 0.00 77 1016.4
20260905141629 85 0 0.0 1.7 0.00 0.00 0.00 77 1016.6
20260905141053 85 0 0.0 1.7 0.00 0.00 0.00 77 1016.5
20260905140555 85 360 0.0 2.6 0.00 0.00 0.00 77 1016.5
20260905140109 84 0 0.0 2.6 0.00 0.00 0.00 78 1016.5
20260905135556 84 360 0.0 2.6 0.00 0.00 0.00 79 1016.5
20260905135055 83 360 0.9 2.6 0.00 0.00 0.00 80 1016.6
20260905134605 82 0 0.0 2.6 0.00 0.00 0.00 81 1016.5
20260905134053 82 0 0.0 2.6 0.00 0.00 0.00 83 1016.5
20260905133553 81 0 0.9 2.6 0.00 0.00 0.00 83 1016.6
20260905133104 80 360 0.9 2.6 0.00 0.00 0.00 84 1016.8
20260905132553 80 0 0.0 1.7 0.00 0.00 0.00 85 1016.8
20260905132053 79 0 0.9 1.7 0.00 0.00 0.00 85 1016.8
20260905131631 79 360 0.0 0.9 0.00 0.00 0.00 87 1016.8
20260905131054 79 0 0.0 0.0 0.00 0.00 0.00 87 1016.8
20260905130554 78 0 0.0 0.0 0.00 0.00 0.00 88 1016.9
20260905130120 78 0 0.0 0.0 0.00 0.00 0.00 88 1016.8
20260905125553 77 0 0.0 0.0 0.00 0.00 0.00 89 1016.8
20260905125053 77 0 0.0 0.0 0.00 0.00 0.00 89 1016.8
20260905124600 77 0 0.0 0.0 0.00 0.00 0.00 90 1016.6
20260905124053 76 0 0.0 0.0 0.00 0.00 0.00 90 1016.8
20260905123553 76 0 0.0 0.0 0.00 0.00 0.00 91 1016.8
20260905123111 76 0 0.0 0.0 0.00 0.00 0.00 91 1016.8
20260905122553 76 0 0.0 0.0 0.00 0.00 0.00 91 1016.7
20260905122052 75 0 0.0 0.0 0.00 0.00 0.00 91 1016.7
20260905121601 75 0 0.0 0.0 0.00 0.00 0.00 91 1016.7
20260905121056 75 0 0.0 0.0 0.00 0.00 0.00 91 1016.7
20260905120554 75 0 0.0 0.0 0.00 0.00 0.00 91 1016.8
20260905120105 75 0 0.0 0.0 0.00 0.00 0.00 91 1016.7
20260905115554 75 0 0.0 0.0 0.00 0.00 0.00 91 1016.5
20260905115053 75 0 0.0 0.0 0.00 0.00 0.00 90 1016.4
20260905114600 75 0 0.0 0.0 0.00 0.00 0.00 90 1016.5
20260905114053 75 0 0.0 0.0 0.00 0.00 0.00 90 1016.2
20260905113553 75 0 0.0 0.0 0.00 0.00 0.00 90 1016.2
20260905113112 75 0 0.0 0.0 0.00 0.00 0.00 90 1016.2
20260905112554 75 0 0.0 0.0 0.00 0.00 0.00 90 1016.1
20260905112056 75 0 0.0 0.0 0.00 0.00 0.00 90 1016.0
20260905111559 75 0 0.0 0.0 0.00 0.00 0.00 90 1015.8
20260905111052 75 0 0.0 0.0 0.00 0.00 0.00 90 1015.8
20260905110551 75 0 0.0 0.0 0.00 0.00 0.00 89 1015.7
20260905110057 75 0 0.0 0.0 0.00 0.00 0.00 90 1015.7
20260905105551 75 0 0.0 0.0 0.00 0.00 0.00 90 1015.6
20260905105051 75 0 0.0 0.0 0.00 0.00 0.00 89 1015.6
20260905104559 75 0 0.0 0.0 0.00 0.00 0.00 90 1015.6
20260905104052 75 0 0.0 0.0 0.00 0.00 0.00 90 1015.5
20260905103551 75 0 0.0 0.0 0.00 0.00 0.00 90 1015.5
20260905103102 75 0 0.0 0.0 0.00 0.00 0.00 90 1015.5
20260905102551 75 0 0.0 0.0 0.00 0.00 0.00 89 1015.5
20260905102051 75 0 0.0 1.7 0.00 0.00 0.00 89 1015.5
20260905101631 75 0 0.0 1.7 0.00 0.00 0.00 89 1015.5
20260905101054 76 360 0.0 0.9 0.00 0.00 0.00 89 1015.5
20260905100551 76 0 0.0 0.9 0.00 0.00 0.00 89 1015.6
20260905095551 76 0 0.0 0.0 0.00 0.00 0.00 89 1015.4
20260905095051 76 0 0.0 0.0 0.00 0.00 0.00 89 1015.5
20260905094603 76 0 0.0 0.0 0.00 0.00 0.00 89 1015.4
20260905094050 76 0 0.0 0.9 0.00 0.00 0.00 89 1015.2
20260905093549 76 0 0.0 0.9 0.00 0.00 0.00 88 1015.2